This is the latest recevied weather packets stored in our database for station/object KC0UFP. If no packets are shown the sender has not sent any weather packets the latest 10 day(s).
| Time | Temp. | Humidity | Pressure | Rain* | Wind** | Luminosity | Snow |
|---|---|---|---|---|---|---|---|
| 1778092032 | 13.33° C | 70% | 1015.5 hPa | 0 mm | - | 337 W/m² | - |
| 1778091729 | 13.33° C | 70% | 1015.2 hPa | 0 mm | - | 311 W/m² | - |
| 1778091427 | 13.33° C | 70% | 1015.1 hPa | 0 mm | - | 381 W/m² | - |
| 1778091125 | 13.33° C | 71% | 1015.3 hPa | 0 mm | - | 395 W/m² | - |
| 1778090822 | 13.33° C | 70% | 1015.3 hPa | 0 mm | - | 422 W/m² | - |
| 1778090518 | 13.33° C | 71% | 1015.7 hPa | 0 mm | - | 412 W/m² | - |
| 1778090214 | 13.33° C | 71% | 1015.5 hPa | 0 mm | - | 368 W/m² | - |
| 1778089911 | 13.33° C | 70% | 1015.5 hPa | 0 mm | - | 411 W/m² | - |
| 1778089609 | 13.33° C | 70% | 1015.3 hPa | 0 mm | - | 448 W/m² | - |
| 1778089305 | 13.33° C | 70% | 1015.3 hPa | 0 mm | - | 313 W/m² | - |
| 1778089004 | 13.33° C | 70% | 1015.4 hPa | 0 mm | - | 315 W/m² | - |
| 1778088700 | 13.33° C | 71% | 1015.3 hPa | 0 mm | - | 411 W/m² | - |
| 1778088391 | 13.33° C | 70% | 1015.2 hPa | 0 mm | - | 386 W/m² | - |
| 1778088087 | 13.33° C | 71% | 1015.3 hPa | 0 mm | - | 448 W/m² | - |
| 1778087785 | 13.33° C | 72% | 1015.1 hPa | 0 mm | - | 392 W/m² | - |
| 1778087483 | 13.33° C | 71% | 1015.4 hPa | 0 mm | - | 527 W/m² | - |
| 1778087180 | 13.33° C | 71% | 1015.6 hPa | 0 mm | - | 462 W/m² | - |
| 1778086871 | 12.78° C | 71% | 1015.9 hPa | 0 mm | - | 485 W/m² | - |
| 1778086570 | 12.78° C | 72% | 1015.7 hPa | 0 mm | - | 445 W/m² | - |
| 1778086265 | 12.78° C | 73% | 1016 hPa | 0 mm | - | 314 W/m² | - |
| 1778085963 | 12.78° C | 72% | 1015.8 hPa | 0 mm | - | 354 W/m² | - |
| 1778085660 | 12.78° C | 75% | 1015.9 hPa | 0 mm | - | 299 W/m² | - |
| 1778085356 | 12.22° C | 74% | 1015.9 hPa | 0 mm | - | 349 W/m² | - |
| 1778085052 | 12.22° C | 73% | 1015.7 hPa | 0 mm | - | 217 W/m² | - |
| 1778084748 | 12.22° C | 74% | 1015.5 hPa | 0 mm | - | 250 W/m² | - |
* Rain latest hour (hover to see other rain measurements)
** Current wind speed in m/s (hover to see current wind gust speed)